When you browse on this site, cookies collect data to enhance your experience and personalize the content and advertising you see.
Visit our Privacy Policy to learn more. By continuing to use the site, you agree to this use of cookies and data.
  • en France
  • Liste des pays
  • À 7 jours
  • Température de l'eau
  • Carte satellitaire
  • Carte météo
  • Widgets météo
  • user-avatar
    Se connecter

    Météo par heure à Sevan

    Ce jour, 24 Avril, Mercredi

    Heure Température Précipitation Vent Pression Humidité
    00:00 +3°C° 0 mm 1 m/s 645 mmHg 74%
    01:00 +3°C° 0 mm 1 m/s 645 mmHg 75%
    02:00 +2°C° 0 mm 1 m/s 645 mmHg 76%
    03:00 +2°C° 0 mm 1 m/s 645 mmHg 78%
    04:00 +2°C° 0 mm 1 m/s 645 mmHg 78%
    05:00 +2°C° 0 mm 1 m/s 645 mmHg 77%
    06:00 +1°C° 0 mm 0 m/s 645 mmHg 76%
    07:00 +4°C° 0 mm 1 m/s 645 mmHg 70%
    08:00 +5°C° 0 mm 1 m/s 646 mmHg 64%
    09:00 +6°C° 0 mm 2 m/s 646 mmHg 60%
    10:00 +6°C° 0 mm 2 m/s 646 mmHg 57%
    11:00 +7°C° 0 mm 2 m/s 645 mmHg 54%
    12:00 +8°C° 0 mm 2 m/s 645 mmHg 51%
    13:00 +8°C° 0.1 mm 2 m/s 645 mmHg 51%
    14:00 +9°C° 0.1 mm 2 m/s 645 mmHg 50%
    15:00 +9°C° 0.1 mm 2 m/s 645 mmHg 49%
    16:00 +10°C° 0.1 mm 1 m/s 644 mmHg 51%
    17:00 +9°C° 0.1 mm 1 m/s 644 mmHg 53%
    18:00 +9°C° 0.1 mm 1 m/s 644 mmHg 55%
    19:00 +8°C° 0.1 mm 1 m/s 644 mmHg 59%
    20:00 +7°C° 0.1 mm 1 m/s 644 mmHg 62%
    21:00 +6°C° 0.1 mm 1 m/s 645 mmHg 66%
    22:00 +6°C° 0.3 mm 1 m/s 645 mmHg 68%
    23:00 +6°C° 0.3 mm 1 m/s 645 mmHg 70%

    Demain, 25 Avril, Jeudi

    Heure Température Précipitation Vent Pression Humidité
    00:00 +5°C° 0.3 mm 1 m/s 645 mmHg 73%
    01:00 +5°C° 0.6 mm 1 m/s 645 mmHg 74%
    02:00 +5°C° 0.6 mm 1 m/s 645 mmHg 76%
    03:00 +5°C° 0.6 mm 1 m/s 645 mmHg 77%
    04:00 +5°C° 0.4 mm 1 m/s 645 mmHg 78%
    05:00 +4°C° 0.4 mm 1 m/s 646 mmHg 78%
    06:00 +4°C° 0.4 mm 1 m/s 646 mmHg 78%
    07:00 +5°C° 0.1 mm 1 m/s 646 mmHg 75%
    08:00 +6°C° 0.1 mm 1 m/s 646 mmHg 71%
    09:00 +7°C° 0.1 mm 1 m/s 646 mmHg 68%
    10:00 +8°C° 0 mm 1 m/s 645 mmHg 63%
    11:00 +9°C° 0 mm 1 m/s 645 mmHg 59%
    12:00 +10°C° 0 mm 1 m/s 645 mmHg 55%
    13:00 +10°C° 0.1 mm 1 m/s 645 mmHg 53%
    14:00 +11°C° 0.1 mm 1 m/s 645 mmHg 51%
    15:00 +11°C° 0.1 mm 1 m/s 645 mmHg 50%
    16:00 +11°C° 0.1 mm 1 m/s 645 mmHg 53%
    17:00 +10°C° 0.1 mm 1 m/s 644 mmHg 56%
    18:00 +9°C° 0.1 mm 1 m/s 644 mmHg 58%
    19:00 +8°C° 0 mm 1 m/s 644 mmHg 61%
    20:00 +6°C° 0 mm 2 m/s 644 mmHg 64%
    21:00 +4°C° 0 mm 2 m/s 644 mmHg 67%
    22:00 +4°C° 0 mm 2 m/s 645 mmHg 68%
    23:00 +3°C° 0 mm 2 m/s 645 mmHg 68%

    Après-demain, 26 Avril, Vendredi

    Heure Température Précipitation Vent Pression Humidité
    00:00 +3°C° 0 mm 2 m/s 645 mmHg 69%
    01:00 +3°C° 0 mm 2 m/s 645 mmHg 68%
    02:00 +2°C° 0 mm 2 m/s 645 mmHg 68%
    03:00 +2°C° 0 mm 2 m/s 645 mmHg 68%
    04:00 +2°C° 0 mm 2 m/s 645 mmHg 67%
    05:00 +2°C° 0 mm 2 m/s 645 mmHg 66%
    06:00 +3°C° 0 mm 2 m/s 645 mmHg 65%
    07:00 +5°C° 0 mm 1 m/s 645 mmHg 60%
    08:00 +7°C° 0 mm 1 m/s 645 mmHg 54%
    09:00 +9°C° 0 mm 1 m/s 645 mmHg 48%
    10:00 +10°C° 0 mm 1 m/s 645 mmHg 46%
    11:00 +11°C° 0 mm 1 m/s 645 mmHg 44%
    12:00 +12°C° 0 mm 2 m/s 645 mmHg 42%
    13:00 +12°C° 0 mm 1 m/s 644 mmHg 43%
    14:00 +12°C° 0 mm 1 m/s 644 mmHg 43%
    15:00 +13°C° 0 mm 1 m/s 644 mmHg 43%
    16:00 +12°C° 0 mm 1 m/s 644 mmHg 46%
    17:00 +11°C° 0 mm 1 m/s 643 mmHg 49%
    18:00 +11°C° 0 mm 1 m/s 643 mmHg 52%
    19:00 +9°C° 0 mm 1 m/s 643 mmHg 56%
    20:00 +8°C° 0 mm 1 m/s 643 mmHg 61%
    21:00 +7°C° 0 mm 1 m/s 644 mmHg 66%
    22:00 +6°C° 0 mm 1 m/s 644 mmHg 68%
    23:00 +6°C° 0 mm 1 m/s 644 mmHg 71%

    27 Avril, Samedi

    Heure Température Précipitation Vent Pression Humidité
    00:00 +6°C° 0 mm 1 m/s 644 mmHg 74%
    01:00 +5°C° 0 mm 1 m/s 643 mmHg 75%
    02:00 +5°C° 0 mm 1 m/s 643 mmHg 76%
    03:00 +5°C° 0 mm 1 m/s 643 mmHg 77%
    04:00 +5°C° 0 mm 1 m/s 643 mmHg 76%
    05:00 +5°C° 0 mm 1 m/s 643 mmHg 75%
    06:00 +5°C° 0 mm 1 m/s 643 mmHg 74%
    07:00 +7°C° 0 mm 1 m/s 643 mmHg 65%
    08:00 +8°C° 0 mm 1 m/s 643 mmHg 57%
    09:00 +9°C° 0 mm 2 m/s 643 mmHg 48%
    10:00 +10°C° 0 mm 2 m/s 643 mmHg 46%
    11:00 +12°C° 0 mm 2 m/s 643 mmHg 44%
    12:00 +13°C° 0 mm 2 m/s 643 mmHg 41%
    13:00 +13°C° 0 mm 2 m/s 643 mmHg 40%
    14:00 +13°C° 0 mm 3 m/s 643 mmHg 39%
    15:00 +13°C° 0 mm 3 m/s 642 mmHg 38%
    16:00 +13°C° 0 mm 2 m/s 642 mmHg 40%
    17:00 +12°C° 0 mm 2 m/s 642 mmHg 42%
    18:00 +12°C° 0 mm 1 m/s 641 mmHg 44%
    19:00 +10°C° 0 mm 1 m/s 641 mmHg 45%
    20:00 +9°C° 0 mm 1 m/s 641 mmHg 47%
    21:00 +8°C° 0 mm 1 m/s 641 mmHg 48%
    22:00 +7°C° 0 mm 1 m/s 641 mmHg 48%
    23:00 +7°C° 0 mm 1 m/s 641 mmHg 48%

    28 Avril, Dimanche

    Heure Température Précipitation Vent Pression Humidité
    00:00 +6°C° 0 mm 1 m/s 641 mmHg 48%
    01:00 +6°C° 0 mm 1 m/s 641 mmHg 47%
    02:00 +6°C° 0 mm 1 m/s 641 mmHg 46%
    03:00 +6°C° 0 mm 1 m/s 640 mmHg 45%
    04:00 +6°C° 0 mm 1 m/s 640 mmHg 47%
    05:00 +6°C° 0 mm 1 m/s 640 mmHg 50%
    06:00 +6°C° 0 mm 1 m/s 640 mmHg 52%
    07:00 +7°C° 0 mm 2 m/s 641 mmHg 50%
    08:00 +9°C° 0 mm 2 m/s 641 mmHg 48%
    09:00 +12°C° 0 mm 2 m/s 641 mmHg 45%
    10:00 +12°C° 0 mm 3 m/s 641 mmHg 45%
    11:00 +13°C° 0 mm 3 m/s 641 mmHg 44%
    12:00 +13°C° 0 mm 3 m/s 640 mmHg 44%
    13:00 +14°C° 0 mm 3 m/s 640 mmHg 44%
    14:00 +14°C° 0 mm 3 m/s 640 mmHg 44%
    15:00 +16°C° 0 mm 3 m/s 640 mmHg 44%
    16:00 +15°C° 0.1 mm 2 m/s 640 mmHg 46%
    17:00 +14°C° 0.1 mm 2 m/s 639 mmHg 49%
    18:00 +14°C° 0.1 mm 2 m/s 639 mmHg 52%
    19:00 +12°C° 0.1 mm 2 m/s 639 mmHg 54%
    20:00 +11°C° 0.1 mm 1 m/s 640 mmHg 56%
    21:00 +10°C° 0.1 mm 1 m/s 640 mmHg 57%
    22:00 +9°C° 0 mm 1 m/s 640 mmHg 58%
    23:00 +9°C° 0 mm 1 m/s 640 mmHg 59%

    29 Avril, Lundi

    Heure Température Précipitation Vent Pression Humidité
    00:00 +9°C° 0 mm 1 m/s 640 mmHg 60%
    01:00 +9°C° 0 mm 1 m/s 639 mmHg 61%
    02:00 +8°C° 0 mm 1 m/s 639 mmHg 63%
    03:00 +7°C° 0 mm 2 m/s 639 mmHg 64%
    04:00 +7°C° 0.1 mm 2 m/s 639 mmHg 66%
    05:00 +8°C° 0.1 mm 2 m/s 639 mmHg 68%
    06:00 +8°C° 0.1 mm 2 m/s 640 mmHg 70%
    07:00 +9°C° 0.1 mm 2 m/s 640 mmHg 67%
    08:00 +12°C° 0.1 mm 2 m/s 640 mmHg 64%
    09:00 +12°C° 0.1 mm 3 m/s 640 mmHg 61%
    10:00 +13°C° 0.1 mm 3 m/s 640 mmHg 58%
    11:00 +14°C° 0.1 mm 3 m/s 640 mmHg 56%
    12:00 +15°C° 0.1 mm 4 m/s 640 mmHg 53%
    13:00 +15°C° 0.2 mm 4 m/s 640 mmHg 52%
    14:00 +15°C° 0.2 mm 4 m/s 640 mmHg 52%
    15:00 +15°C° 0.2 mm 4 m/s 639 mmHg 51%
    16:00 +14°C° 0.3 mm 3 m/s 639 mmHg 54%
    17:00 +13°C° 0.3 mm 3 m/s 639 mmHg 57%
    18:00 +13°C° 0.3 mm 3 m/s 639 mmHg 59%
    19:00 +13°C° 0.3 mm 2 m/s 639 mmHg 61%
    20:00 +12°C° 0.3 mm 2 m/s 640 mmHg 64%
    21:00 +11°C° 0.3 mm 1 m/s 640 mmHg 66%
    22:00 +10°C° 0.1 mm 1 m/s 640 mmHg 68%
    23:00 +10°C° 0.1 mm 1 m/s 640 mmHg 70%
    Voir plus